307  
ASUS41 KPHI 190812  
RWRPHI  
 
REGIONAL WEATHER ROUNDUP  
NATIONAL WEATHER SERVICE MOUNT HOLLY NJ  
400 AM EDT THU SEP 19 2019  
 
NOTE: "FAIR" INDICATES FEW OR NO CLOUDS BELOW 12,000 FEET WITH NO  
SIGNIFICANT WEATHER AND/OR S TO VISIBILITY
.  
 
* = STATION DOES NOT REPORT PRECIPITATION (E.G. RAIN, SNOW, ETC.)  
OR FOG.
 
 
NJZ015>026-190900-  
SOUTHERN NEW JERSEY  
 
CITY SKY/WX TMP DP RH WIND PRES REMARKS
 
POMONA FAIR 50 45 83 N6 30.29R  
WILDWOOD* CLOUDY 57 48 72 N10 30.28S  
MILLVILLE FAIR 53 46 77 NE5 30.30R  
WRIGHTSTOWN FAIR 48 43 84 NE7 30.31R  
MOUNT HOLLY FAIR 48 45 89 CALM 30.31R  
TRENTON FAIR 50 45 83 NE6 30.32R  
 

 
NJZ001>014-190900-  
NORTHERN NEW JERSEY  
 
CITY SKY/WX TMP DP RH WIND PRES REMARKS
 
SUSSEX FAIR 41 39 93 CALM 30.34S FOG  
ANDOVER* N/A 46 44 93 CALM 30.33S  
MORRISTOWN FAIR 43 43 100 CALM 30.33R  
NEWARK FAIR 53 44 71 N8 30.32S  
TETERBORO FAIR 52 42 69 N3 30.32S  
CALDWELL FAIR 48 45 89 CALM 30.34R  
SOMERVILLE FAIR 45 44 97 CALM 30.31R  
ALLAIRE* FAIR 55 42 61 NE9 30.32S  
TOMS RIVER* FAIR 46 32 58 VRB3 30.31R  
 

 
PAZ043-044-047-054-055-060>062-066>071-190900-  
EASTERN PENNSYLVANIA  
 
CITY SKY/WX TMP DP RH WIND PRES REMARKS
 
PHILADELPHIA FAIR 56 45 66 NE7 30.32R  
NORTH PHILA FAIR 52 45 77 NE8 30.33R  
BLUE BELL* FAIR 45 45 97 CALM 30.32R  
DOYLESTOWN FAIR 50 45 83 VRB3 30.32R  
QUAKERTOWN* CLEAR 45 45 100 CALM 30.32  
PERKASIE* FAIR 48 48 100 CALM 30.33R  
POTTSTOWN FAIR 46 46 100 CALM 30.34R  
LANCASTER FAIR 53 48 83 CALM 30.31S  
COATESVILLE FAIR 52 48 87 CALM 30.32S  
WEST CHESTER FAIR 52 46 82 CALM 30.32R  
READING FAIR 51 50 96 N3 30.31R  
ALLENTOWN FAIR 50 45 83 CALM 30.33R  
QN CITY/ALNTWN FAIR 50 46 87 CALM 30.34R  
MOUNT POCONO FAIR 38 38 100 E3 30.32S  
HAZLETON FAIR 45 43 93 CALM 30.35S  
LEHIGHTON FAIR 41 41 100 CALM 30.34S  
WILKES BARRE FAIR 48 44 86 N3 30.32S  
 

 
DEZALL-MDZ008-012-015-019-020-190900-  
DELAWARE AND EASTERN MARYLAND  
 
CITY SKY/WX TMP DP RH WIND PRES REMARKS
 
WILMINGTON FAIR 54 50 86 N3 30.31R  
DOVER FAIR 59 47 63 NE16 30.29R  
CHESWOLD N/A 50 48 93 CALM 30.30R  
GEORGETOWN NOT AVBL  
EASTON FAIR 52 49 90 N5 30.32R  
STEVENSVILLE FAIR 59 52 77 CALM 30.30R  
PATUXENT FAIR 62 50 64 NE14 30.27  
OCEAN CITY MOCLDY 63 47 55 NE13G22 30.25S  
WALLOPS ISLAND FAIR 62 47 57 NE13 30.24S  
CAMBRIDGE CLEAR 57 52 82 NE6 30.28R  
SALISBURY FAIR 53 48 83 CALM 30.26R  
 

 
PAZ001-021-NYZ056-072-MDZ011-DCZ001-190900-  
OTHER NEARBY LOCATIONS  
 
CITY SKY/WX TMP DP RH WIND PRES REMARKS
 
HARRISBURG FAIR 55 50 83 CALM 30.31S  
STATE COLLEGE FAIR 47 46 94 CALM 30.30S  
WILLIAMSPORT FAIR 48 45 89 CALM 30.31S  
BINGHAMTON FAIR 48 42 80 SE3 30.32S  
NEW YORK CITY FAIR 53 43 68 N5 30.35S  
BALTIMORE FAIR 59 50 72 E7 30.29R  
WASHINGTON DC FAIR 61 54 77 NE6 30.29R  
 

 
 
 
CLICK HERE TO GO TO PREVIOUS BULLETINS.

The Nexlab PA Page
The Nexlab NJ Page
The Nexlab DE Page
The Nexlab MD Page Main Text Page